Location: Casco Volunteer Fire Department
(44.5576°N, 87.6146°W)
Time: 05:06:31
(UTC+00:00)

SPOT 1/Viking Rocket - Pass Details

Date: 22 January 2026
Orbit: 772 x 790 km, 98.2° (Epoch: 10 February)

Event Time Altitude Azimuth Distance (km) Brightness Sun altitude
Rises 23:14:08 0° 144° (SE) 3,250 6.6 -5.4°
Reaches altitude 10° 23:16:32 10° 138° (SE) 2,324 5.8 -5.8°
Maximum altitude 23:21:19 41° 69° (ENE) 1,111 3.9 -6.6°
Drops below altitude 10° 23:26:07 10° 0° (N) 2,330 5.8 -7.4°
Sets 23:28:32 0° 354° (N) 3,260 6.6 -7.8°
